Вернуться в каталог

BREEZE-M DEB

TANK

АктивенHEO
NORAD 40986·DEBRIS·🇷🇺 Russia

Запущен Oct 16, 2015 с Baikonur Cosmodrome

Loading…

Ближайшие Пролёты (ближайшие 24 часа)

TLE

СвежийSource: Space-Track

Эпоха: Sep 14, 2026, 15:48 UTC

1 40986U 15060C   26257.65839370  .00000540  00000-0  27411-3 0  9999
2 40986  49.0465 134.7910 6078532 297.3182  14.3197  3.85676044152416

Отслеживайте BREEZE-M DEB в реальном времени с AllMySat

Download on the App Store